Weather History for Kake, AK

Change the Weather History Date:

Saturday, January 19, 2013

  Actual Average Record
Temperature  
Mean Temperature 34 °F -  
Max Temperature 37 °F 33 °F 51 °F (2009)
Min Temperature 32 °F 27 °F 8 °F (2012)
Degree Days  
Heating Degree Days 30    
Moisture  
Dew Point 29 °F    
Average Humidity 77    
Maximum Humidity 87    
Minimum Humidity 70    
Precipitation  
Precipitation 0.00 in - - ()
Sea Level Pressure  
Sea Level Pressure 30.33 in    
Wind  
Wind Speed 7 mph (ENE)    
Max Wind Speed 13 mph    
Max Gust Speed 20 mph    
Visibility 10 miles    
Events      
Averages and records for this station are not official NWS values.
T = Trace of Precipitation, MM = Missing Value Source: NWS Daily Summary

Daily Weather History Graph

Daily Weather History Graph

Search for Another Location

Airport:

Trip Planner

Search our weather history database for the weather conditions in past years. The results will help you decide how hot, cold, wet, or windy it might be!

Date:

Astronomy

Jan. 19, 2013 Rise Set
Actual Time 8:16 AM AKST 3:57 PM AKST
Civil Twilight 7:31 AM AKST 4:42 PM AKST
Nautical Twilight 6:43 AM AKST 5:30 PM AKST
Astronomical Twilight 5:57 AM AKST 6:15 PM AKST
Moon 10:41 AM AKST (1/19) 1:40 AM AKST (1/19)
Length of Visible Light 9h 11m
Length of Day
7h 40m
First Quarter, 58% of the Moon is Illuminated
Jan 19
First Quarter
Jan 26
Full
Feb 3
Last Quarter
Feb 9
New
Feb 17
First Quarter

Hourly Weather History & Observations

Time (AKST) Temp. Windchill Dew Point Humidity Pressure Visibility Wind Dir Wind Speed Gust Speed Precip Events Conditions
12:16 AM 35.6 °F 30.7 °F 30.2 °F 81% 30.30 in 10.0 mi East 5.8 mph - N/A   Overcast
12:36 AM 35.6 °F 30.7 °F 30.2 °F 81% 30.30 in 10.0 mi East 5.8 mph - N/A   Overcast
12:56 AM 35.6 °F 30.7 °F 30.2 °F 81% 30.30 in 10.0 mi East 5.8 mph - N/A   Overcast
1:16 AM 35.6 °F 29.9 °F 30.2 °F 81% 30.30 in 10.0 mi East 6.9 mph - N/A   Overcast
1:36 AM 35.6 °F 30.7 °F 30.2 °F 81% 30.31 in 10.0 mi East 5.8 mph - N/A   Overcast
1:56 AM 35.6 °F 29.9 °F 30.2 °F 81% 30.31 in 10.0 mi East 6.9 mph - N/A   Overcast
2:16 AM 35.6 °F 30.7 °F 30.2 °F 81% 30.31 in 10.0 mi East 5.8 mph - N/A   Overcast
2:36 AM 35.6 °F 29.9 °F 30.2 °F 81% 30.31 in 10.0 mi East 6.9 mph - N/A   Overcast
2:56 AM 33.8 °F 28.6 °F 30.2 °F 87% 30.31 in 10.0 mi East 5.8 mph - N/A   Overcast
3:16 AM 33.8 °F 27.7 °F 30.2 °F 87% 30.31 in 10.0 mi East 6.9 mph - N/A   Overcast
3:36 AM 33.8 °F 27.7 °F 30.2 °F 87% 30.30 in 10.0 mi East 6.9 mph - N/A   Overcast
3:56 AM 33.8 °F 28.6 °F 28.4 °F 81% 30.30 in 10.0 mi East 5.8 mph - N/A   Overcast
4:16 AM 33.8 °F - 28.4 °F 81% 30.31 in 10.0 mi Calm Calm - N/A   Mostly Cloudy
4:36 AM 33.8 °F 30.8 °F 28.4 °F 81% 30.31 in 10.0 mi East 3.5 mph - N/A   Mostly Cloudy
4:56 AM 33.8 °F 30.8 °F 28.4 °F 81% 30.31 in 10.0 mi East 3.5 mph - N/A   Scattered Clouds
5:16 AM 32.0 °F 27.5 °F 28.4 °F 87% 30.31 in 10.0 mi East 4.6 mph - N/A   Mostly Cloudy
5:36 AM 33.8 °F 30.8 °F 28.4 °F 81% 30.31 in 10.0 mi East 3.5 mph - N/A   Overcast
5:56 AM 33.8 °F 30.8 °F 28.4 °F 81% 30.31 in 10.0 mi East 3.5 mph - N/A   Overcast
6:16 AM 33.8 °F 29.6 °F 30.2 °F 87% 30.31 in 10.0 mi East 4.6 mph - N/A   Overcast
6:36 AM 33.8 °F 28.6 °F 30.2 °F 87% 30.31 in 10.0 mi East 5.8 mph - N/A   Overcast
6:56 AM 32.0 °F 26.4 °F 28.4 °F 87% 30.31 in 10.0 mi East 5.8 mph - N/A   Mostly Cloudy
7:16 AM 33.8 °F - 28.4 °F 81% 30.31 in 10.0 mi Calm Calm - N/A   Overcast
7:36 AM 33.8 °F 29.6 °F 28.4 °F 81% 30.31 in 10.0 mi East 4.6 mph - N/A   Overcast
7:56 AM 33.8 °F 28.6 °F 28.4 °F 81% 30.32 in 10.0 mi ENE 5.8 mph - N/A   Overcast
8:16 AM 35.6 °F 29.9 °F 28.4 °F 75% 30.32 in 10.0 mi ENE 6.9 mph - N/A   Overcast
8:36 AM 35.6 °F 29.2 °F 28.4 °F 75% 30.32 in 10.0 mi NE 8.1 mph - N/A   Mostly Cloudy
8:56 AM 35.6 °F 28.6 °F 30.2 °F 81% 30.32 in 10.0 mi NE 9.2 mph - N/A   Overcast
9:16 AM 35.6 °F 29.9 °F 30.2 °F 81% 30.32 in 10.0 mi NE 6.9 mph - N/A   Overcast
9:36 AM 35.6 °F 29.2 °F 30.2 °F 81% 30.33 in 10.0 mi NE 8.1 mph - N/A   Overcast
9:56 AM 35.6 °F 28.0 °F 30.2 °F 81% 30.34 in 10.0 mi NE 10.4 mph - N/A   Overcast
10:16 AM 35.6 °F 27.5 °F 30.2 °F 81% 30.34 in 10.0 mi NE 11.5 mph - N/A   Overcast
10:36 AM 37.4 °F 30.3 °F 30.2 °F 75% 30.34 in 10.0 mi NE 10.4 mph 16.1 mph N/A   Overcast
10:56 AM 37.4 °F 30.8 °F 30.2 °F 75% 30.34 in 10.0 mi NE 9.2 mph - N/A   Mostly Cloudy
11:16 AM 37.4 °F 30.3 °F 30.2 °F 75% 30.34 in 10.0 mi NE 10.4 mph 16.1 mph N/A   Mostly Cloudy
11:36 AM 37.4 °F 29.3 °F 30.2 °F 75% 30.34 in 10.0 mi NE 12.7 mph 18.4 mph N/A   Overcast
11:56 AM 37.4 °F 29.3 °F 30.2 °F 75% 30.35 in 10.0 mi NE 12.7 mph 17.3 mph N/A   Overcast
12:16 PM 37.4 °F 29.8 °F 30.2 °F 75% 30.34 in 10.0 mi NE 11.5 mph 19.6 mph N/A   Overcast
12:36 PM 35.6 °F 29.9 °F 30.2 °F 81% 30.35 in 10.0 mi NE 6.9 mph 18.4 mph N/A   Mostly Cloudy
12:56 PM 35.6 °F 27.5 °F 30.2 °F 81% 30.35 in 10.0 mi ENE 11.5 mph 16.1 mph N/A   Overcast
1:16 PM 35.6 °F 27.5 °F 30.2 °F 81% 30.35 in 10.0 mi NE 11.5 mph 18.4 mph N/A   Overcast
1:36 PM 35.6 °F 28.0 °F 28.4 °F 75% 30.34 in 10.0 mi ENE 10.4 mph 18.4 mph N/A   Overcast
1:56 PM 35.6 °F 28.6 °F 30.2 °F 81% 30.34 in 10.0 mi ENE 9.2 mph - N/A   Overcast
2:16 PM 35.6 °F 29.2 °F 30.2 °F 81% 30.34 in 10.0 mi East 8.1 mph - N/A   Overcast
2:36 PM 35.6 °F 29.2 °F 28.4 °F 75% 30.35 in 10.0 mi ENE 8.1 mph - N/A   Overcast
2:56 PM 35.6 °F 29.2 °F 28.4 °F 75% 30.34 in 10.0 mi ENE 8.1 mph - N/A   Overcast
3:16 PM 35.6 °F 29.9 °F 28.4 °F 75% 30.35 in 10.0 mi ENE 6.9 mph - N/A   Overcast
3:36 PM 35.6 °F 29.2 °F 28.4 °F 75% 30.34 in 10.0 mi ENE 8.1 mph - N/A   Overcast
3:56 PM 35.6 °F 29.9 °F 28.4 °F 75% 30.33 in 10.0 mi ENE 6.9 mph - N/A   Overcast
4:16 PM 35.6 °F 29.2 °F 28.4 °F 75% 30.33 in 10.0 mi ENE 8.1 mph - N/A   Overcast
4:36 PM 35.6 °F 28.0 °F 28.4 °F 75% 30.34 in 10.0 mi ENE 10.4 mph - N/A   Overcast
4:56 PM 35.6 °F 28.0 °F 28.4 °F 75% 30.34 in 10.0 mi ENE 10.4 mph - N/A   Overcast
5:16 PM 35.6 °F 28.6 °F 28.4 °F 75% 30.33 in 10.0 mi NE 9.2 mph - N/A   Overcast
5:36 PM 35.6 °F 27.5 °F 26.6 °F 70% 30.32 in 10.0 mi ENE 11.5 mph 17.3 mph N/A   Overcast
5:56 PM 35.6 °F 28.0 °F 26.6 °F 70% 30.33 in 10.0 mi ENE 10.4 mph 18.4 mph N/A   Overcast
6:16 PM 35.6 °F 29.9 °F 26.6 °F 70% 30.34 in 10.0 mi East 6.9 mph 16.1 mph N/A   Overcast
6:36 PM 35.6 °F 27.5 °F 26.6 °F 70% 30.33 in 10.0 mi NE 11.5 mph 16.1 mph N/A   Overcast
6:56 PM 35.6 °F 28.6 °F 26.6 °F 70% 30.33 in 10.0 mi NE 9.2 mph - N/A   Overcast
7:16 PM 35.6 °F 27.5 °F 26.6 °F 70% 30.33 in 10.0 mi ENE 11.5 mph - N/A   Overcast
7:36 PM 35.6 °F 28.6 °F 26.6 °F 70% 30.33 in 10.0 mi ENE 9.2 mph - N/A   Overcast
7:56 PM 35.6 °F 28.0 °F 26.6 °F 70% 30.34 in 10.0 mi ENE 10.4 mph - N/A   Overcast
8:16 PM 35.6 °F 30.7 °F 26.6 °F 70% 30.33 in 10.0 mi East 5.8 mph - N/A   Overcast
8:36 PM 35.6 °F 29.9 °F 26.6 °F 70% 30.33 in 10.0 mi ENE 6.9 mph - N/A   Overcast
8:56 PM 35.6 °F 30.7 °F 26.6 °F 70% 30.33 in 10.0 mi ENE 5.8 mph - N/A   Overcast
9:16 PM 35.6 °F 29.2 °F 26.6 °F 70% 30.33 in 10.0 mi East 8.1 mph - N/A   Overcast
9:36 PM 35.6 °F 30.7 °F 28.4 °F 75% 30.32 in 10.0 mi East 5.8 mph - N/A   Overcast
9:56 PM 35.6 °F 29.9 °F 28.4 °F 75% 30.33 in 10.0 mi East 6.9 mph - N/A   Overcast
10:16 PM 35.6 °F 29.9 °F 26.6 °F 70% 30.33 in 10.0 mi East 6.9 mph - N/A   Overcast
10:36 PM 35.6 °F 29.9 °F 26.6 °F 70% 30.32 in 10.0 mi ENE 6.9 mph - N/A   Overcast
10:56 PM 35.6 °F 28.0 °F 26.6 °F 70% 30.32 in 10.0 mi ENE 10.4 mph - N/A   Overcast
11:16 PM 35.6 °F 28.0 °F 26.6 °F 70% 30.32 in 10.0 mi ENE 10.4 mph 16.1 mph N/A   Overcast
11:36 PM 35.6 °F 31.7 °F 26.6 °F 70% 30.33 in 10.0 mi East 4.6 mph - N/A   Overcast
11:56 PM 35.6 °F 29.9 °F 26.6 °F 70% 30.33 in 10.0 mi ENE 6.9 mph - N/A   Overcast